| time (UTC) | temp F | wind direction | speed MPH | gust MPH | rain 1hr in | rain 24hr in | rain mn in | humidity % | barometer mb |
| 20260905213530 | 61 | 236 | 1.0 | 3.0 | 0.00 | 0.03 | 0.03 | 5 | 1017.9 |
| 20260905211559 | 61 | 232 | 0.0 | 2.0 | 0.00 | 0.03 | 0.03 | 5 | 1017.8 |
| 20260905205827 | 62 | 246 | 1.0 | 2.0 | 0.00 | 0.03 | 0.03 | 5 | 1017.5 |
| 20260905204107 | 63 | 240 | 1.0 | 4.0 | 0.00 | 0.03 | 0.03 | 5 | 1017.8 |
| 20260905202254 | 63 | 255 | 0.0 | 3.0 | 0.00 | 0.03 | 0.03 | 5 | 1017.5 |
| 20260905200347 | 61 | 248 | 0.0 | 0.0 | 0.00 | 0.03 | 0.03 | 6 | 1017.2 |
| 20260905194635 | 60 | 222 | 0.0 | 0.0 | 0.00 | 0.03 | 0.03 | 6 | 1017.4 |
| 20260905192855 | 61 | 229 | 0.0 | 0.0 | 0.00 | 0.03 | 0.03 | 6 | 1017.1 |
| 20260905190939 | 62 | 229 | 0.0 | 0.0 | 0.00 | 0.03 | 0.03 | 6 | 1017.3 |
| 20260905185250 | 62 | 228 | 0.0 | 1.0 | 0.00 | 0.03 | 0.03 | 6 | 1017.1 |
| 20260905183419 | 62 | 218 | 0.0 | 0.0 | 0.00 | 0.03 | 0.03 | 6 | 1016.9 |
| 20260905181629 | 63 | 218 | 0.0 | 0.0 | 0.00 | 0.03 | 0.03 | 6 | 1016.9 |
| 20260905175749 | 62 | 218 | 0.0 | 0.0 | 0.00 | 0.03 | 0.03 | 6 | 1016.6 |
| 20260905173920 | 63 | 218 | 0.0 | 0.0 | 0.00 | 0.03 | 0.03 | 6 | 1016.3 |
| 20260905172055 | 64 | 218 | 0.0 | 0.0 | 0.00 | 0.03 | 0.03 | 6 | 1016.3 |
| 20260905170314 | 66 | 229 | 0.0 | 0.0 | 0.00 | 0.03 | 0.03 | 5 | 1016.1 |
| 20260905164449 | 67 | 228 | 0.0 | 1.0 | 0.00 | 0.03 | 0.03 | 5 | 1016.0 |
| 20260905162520 | 68 | 249 | 1.0 | 2.0 | 0.00 | 0.03 | 0.03 | 5 | 1015.9 |
| 20260905160615 | 70 | 290 | 2.0 | 3.0 | 0.00 | 0.03 | 0.03 | 5 | 1015.9 |
| 20260905154729 | 72 | 265 | 1.0 | 4.0 | 0.00 | 0.03 | 0.03 | 4 | 1015.8 |
| 20260905152955 | 72 | 209 | 4.0 | 8.0 | 0.00 | 0.03 | 0.03 | 4 | 1015.5 |
| 20260905151327 | 73 | 265 | 2.0 | 3.0 | 0.00 | 0.03 | 0.03 | 4 | 1015.5 |
| 20260905145330 | 70 | 206 | 2.0 | 4.0 | 0.00 | 0.03 | 0.03 | 5 | 1015.6 |
| 20260905143535 | 74 | 275 | 4.0 | 6.0 | 0.00 | 0.03 | 0.03 | 4 | 1015.6 |
| 20260905141647 | 73 | 178 | 1.0 | 6.0 | 0.00 | 0.03 | 0.03 | 4 | 1015.6 |
| 20260905135827 | 74 | 359 | 5.0 | 10.0 | 0.00 | 0.03 | 0.03 | 4 | 1015.5 |
| 20260905134113 | 71 | 236 | 1.0 | 8.0 | 0.00 | 0.03 | 0.03 | 4 | 1015.6 |
| 20260905132415 | 70 | 210 | 2.0 | 8.0 | 0.00 | 0.03 | 0.03 | 4 | 1015.6 |
| 20260905122947 | 71 | 232 | 1.0 | 8.0 | 0.00 | 0.03 | 0.03 | 5 | 1015.7 |
| 20260905121000 | 69 | 211 | 1.0 | 6.0 | 0.00 | 0.03 | 0.03 | 5 | 1015.6 |
| 20260905115111 | 70 | 289 | 1.0 | 4.0 | 0.00 | 0.03 | 0.03 | 5 | 1015.9 |
| 20260905113407 | 69 | 220 | 5.0 | 8.0 | 0.00 | 0.03 | 0.03 | 5 | 1015.9 |
| 20260905111516 | 68 | 276 | 1.0 | 9.0 | 0.00 | 0.03 | 0.03 | 5 | 1016.0 |
| 20260905105808 | 69 | 229 | 4.0 | 10.0 | 0.00 | 0.03 | 0.03 | 5 | 1015.9 |
| 20260905104109 | 68 | 217 | 3.0 | 11.0 | 0.00 | 0.03 | 0.03 | 6 | 1016.2 |
| 20260905102455 | 67 | 285 | 1.0 | 6.0 | 0.00 | 0.03 | 0.03 | 6 | 1016.1 |
| 20260905100850 | 66 | 225 | 0.0 | 6.0 | 0.00 | 0.03 | 0.03 | 6 | 1015.8 |
| 20260905094947 | 66 | 1 | 0.0 | 6.0 | 0.00 | 0.03 | 0.03 | 6 | 1015.9 |
| 20260905093327 | 64 | 258 | 1.0 | 2.0 | 0.00 | 0.03 | 0.03 | 7 | 1015.8 |
| 20260905091447 | 62 | 217 | 2.0 | 3.0 | 0.00 | 0.03 | 0.03 | 7 | 1015.9 |
| 20260905085835 | 61 | 235 | 0.0 | 2.0 | 0.00 | 0.03 | 0.03 | 7 | 1015.9 |
| 20260905084147 | 61 | 244 | 1.0 | 5.0 | 0.00 | 0.03 | 0.03 | 7 | 1016.0 |
| 20260905082400 | 62 | 214 | 1.0 | 3.0 | 0.00 | 0.03 | 0.03 | 7 | 1016.0 |
| 20260905080647 | 61 | 222 | 3.0 | 6.0 | 0.00 | 0.03 | 0.03 | 7 | 1015.8 |
| 20260905075041 | 60 | 270 | 2.0 | 4.0 | 0.01 | 0.04 | 0.03 | 8 | 1015.6 |
| 20260905073055 | 59 | 229 | 0.0 | 2.0 | 0.02 | 0.05 | 0.03 | 8 | 1015.5 |
| 20260905071255 | 60 | 248 | 1.0 | 2.0 | 0.02 | 0.05 | 0.03 | 8 | 1015.4 |
| 20260905065647 | 60 | 222 | 3.0 | 5.0 | 0.02 | 0.03 | 0.02 | 8 | 1015.5 |
| 20260905062407 | 61 | 225 | 1.0 | 11.0 | 0.01 | 0.02 | 0.01 | 7 | 1014.8 |
| 20260905054834 | 63 | 259 | 2.0 | 6.0 | 0.00 | 0.00 | 0.00 | 7 | 1014.2 |
| 20260905052920 | 63 | 245 | 2.0 | 4.0 | 0.00 | 0.00 | 0.00 | 7 | 1013.8 |
| 20260905051055 | 63 | 237 | 1.0 | 4.0 | 0.00 | 0.00 | 0.00 | 7 | 1013.9 |
| 20260905045440 | 64 | 253 | 1.0 | 3.0 | 0.00 | 0.00 | 0.00 | 7 | 1013.6 |
| 20260905043650 | 64 | 284 | 2.0 | 8.0 | 0.00 | 0.00 | 0.00 | 7 | 1013.3 |
| 20260905042047 | 63 | 246 | 1.0 | 2.0 | 0.00 | 0.00 | 0.00 | 7 | 1013.2 |
| 20260905040155 | 63 | 299 | 1.0 | 5.0 | 0.00 | 0.00 | 0.00 | 7 | 1012.9 |
| 20260905034540 | 62 | 211 | 0.0 | 5.0 | 0.00 | 0.00 | 0.00 | 7 | 1013.2 |
| 20260905032634 | 62 | 232 | 1.0 | 3.0 | 0.00 | 0.00 | 0.00 | 8 | 1013.1 |
| 20260905030741 | 61 | 246 | 0.0 | 1.0 | 0.00 | 0.00 | 0.00 | 8 | 1013.5 |
| 20260905024758 | 63 | 226 | 0.0 | 1.0 | 0.00 | 0.00 | 0.00 | 7 | 1013.3 |
| 20260905022846 | 63 | 235 | 0.0 | 1.0 | 0.00 | 0.00 | 0.00 | 7 | 1013.2 |
| 20260905021114 | 63 | 207 | 0.0 | 2.0 | 0.00 | 0.00 | 0.00 | 7 | 1013.2 |
| 20260905015319 | 66 | 248 | 2.0 | 4.0 | 0.00 | 0.00 | 0.00 | 6 | 1013.1 |
| 20260905013549 | 68 | 254 | 2.0 | 5.0 | 0.00 | 0.00 | 0.00 | 6 | 1012.7 |
| 20260905010055 | 69 | 328 | 1.0 | 2.0 | 0.00 | 0.00 | 0.00 | 6 | 1011.7 |
| 20260905004329 | 69 | 131 | 2.0 | 3.0 | 0.00 | 0.00 | 0.00 | 6 | 1011.6 |
| 20260905002415 | 70 | 220 | 0.0 | 2.0 | 0.00 | 0.00 | 0.00 | 6 | 1010.8 |
| 20260905000454 | 73 | 259 | 1.0 | 2.0 | 0.00 | 0.00 | 0.00 | 5 | 1009.8 |
| 20260904234749 | 76 | 214 | 2.0 | 3.0 | 0.00 | 0.00 | 0.00 | 5 | 1009.3 |
| 20260904233047 | 76 | 286 | 3.0 | 5.0 | 0.00 | 0.00 | 0.00 | 5 | 1008.7 |
| 20260904231347 | 76 | 346 | 2.0 | 6.0 | 0.00 | 0.00 | 0.00 | 5 | 1008.9 |
| 20260904225421 | 76 | 263 | 1.0 | 3.0 | 0.00 | 0.00 | 0.00 | 5 | 1008.7 |
| 20260904223759 | 76 | 265 | 1.0 | 3.0 | 0.00 | 0.00 | 0.00 | 5 | 1008.8 |
| 20260904222155 | 76 | 321 | 2.0 | 6.0 | 0.00 | 0.00 | 0.00 | 4 | 1008.8 |
| 20260904220246 | 76 | 249 | 4.0 | 10.0 | 0.00 | 0.00 | 0.00 | 4 | 1008.8 |